| time (UTC) | temp F | wind direction | speed knots | gust knots | rain 1hr in | rain 24hr in | rain mn in | humidity % | barometer mb |
| 20260507134516 | 70 | 42 | 0.0 | 5.2 | 0.00 | 0.00 | 0.00 | 35 | 1011.5 |
| 20260507133015 | 71 | 54 | 0.9 | 6.1 | 0.00 | 0.00 | 0.00 | 35 | 1011.5 |
| 20260507131514 | 70 | 349 | 0.0 | 3.5 | 0.00 | 0.00 | 0.00 | 35 | 1011.5 |
| 20260507130014 | 70 | 54 | 0.9 | 6.1 | 0.00 | 0.00 | 0.00 | 37 | 1011.6 |
| 20260507124517 | 70 | 31 | 3.5 | 7.8 | 0.00 | 0.00 | 0.00 | 36 | 1011.7 |
| 20260507123021 | 71 | 39 | 0.9 | 8.7 | 0.00 | 0.00 | 0.00 | 35 | 1011.7 |
| 20260507121512 | 70 | 58 | 1.7 | 7.8 | 0.00 | 0.00 | 0.00 | 37 | 1011.6 |
| 20260507120012 | 70 | 62 | 1.7 | 7.0 | 0.00 | 0.00 | 0.00 | 38 | 1011.5 |
| 20260507114512 | 70 | 44 | 1.7 | 7.8 | 0.00 | 0.00 | 0.00 | 36 | 1011.7 |
| 20260507113011 | 70 | 8 | 0.0 | 4.3 | 0.00 | 0.00 | 0.00 | 37 | 1011.7 |
| 20260507111510 | 71 | 310 | 1.7 | 8.7 | 0.00 | 0.00 | 0.00 | 38 | 1011.7 |
| 20260507110012 | 71 | 290 | 0.0 | 6.1 | 0.00 | 0.00 | 0.00 | 39 | 1011.6 |
| 20260507104507 | 71 | 324 | 0.0 | 4.3 | 0.00 | 0.00 | 0.00 | 37 | 1011.6 |
| 20260507103009 | 70 | 314 | 0.9 | 5.2 | 0.00 | 0.00 | 0.00 | 40 | 1011.6 |
| 20260507101509 | 70 | 57 | 0.0 | 4.3 | 0.00 | 0.00 | 0.00 | 42 | 1011.5 |
| 20260507100008 | 70 | 33 | 0.9 | 8.7 | 0.00 | 0.00 | 0.00 | 42 | 1011.6 |
| 20260507094504 | 70 | 91 | 0.0 | 0.9 | 0.00 | 0.00 | 0.00 | 43 | 1011.5 |
| 20260507093003 | 69 | 56 | 0.9 | 10.4 | 0.00 | 0.00 | 0.00 | 41 | 1011.6 |
| 20260507091505 | 70 | 42 | 0.0 | 7.8 | 0.00 | 0.00 | 0.00 | 43 | 1011.5 |
| 20260507090113 | 70 | 314 | 0.9 | 5.2 | 0.00 | 0.00 | 0.00 | 45 | 1011.4 |
| 20260507084600 | 69 | 350 | 0.0 | 5.2 | 0.00 | 0.00 | 0.00 | 45 | 1011.5 |
| 20260507083102 | 69 | 28 | 0.9 | 9.6 | 0.00 | 0.00 | 0.00 | 47 | 1011.4 |
| 20260507081559 | 69 | 312 | 0.9 | 6.1 | 0.00 | 0.00 | 0.00 | 48 | 1011.5 |
| 20260507080054 | 68 | 66 | 0.9 | 6.1 | 0.00 | 0.00 | 0.00 | 49 | 1011.5 |
| 20260507074553 | 68 | 40 | 0.9 | 7.8 | 0.00 | 0.00 | 0.00 | 53 | 1011.5 |
| 20260507073100 | 68 | 341 | 0.0 | 7.8 | 0.00 | 0.00 | 0.00 | 53 | 1011.5 |
| 20260507071546 | 67 | 50 | 1.7 | 9.6 | 0.00 | 0.00 | 0.00 | 54 | 1011.4 |
| 20260507070119 | 66 | 49 | 3.5 | 9.6 | 0.00 | 0.00 | 0.00 | 56 | 1011.3 |
| 20260507064547 | 66 | 13 | 3.5 | 10.4 | 0.00 | 0.00 | 0.00 | 58 | 1011.2 |
| 20260507063040 | 66 | 47 | 3.5 | 9.6 | 0.00 | 0.00 | 0.00 | 60 | 1011.3 |
| 20260507061538 | 65 | 33 | 2.6 | 10.4 | 0.00 | 0.00 | 0.00 | 61 | 1011.1 |
| 20260507060042 | 65 | 48 | 0.9 | 8.7 | 0.00 | 0.00 | 0.00 | 63 | 1011.1 |
| 20260507054536 | 64 | 11 | 0.9 | 7.0 | 0.00 | 0.00 | 0.00 | 64 | 1011.0 |
| 20260507053039 | 64 | 37 | 0.9 | 9.6 | 0.00 | 0.00 | 0.00 | 65 | 1011.0 |
| 20260507051534 | 63 | 45 | 2.6 | 9.6 | 0.00 | 0.00 | 0.00 | 68 | 1010.9 |
| 20260507050034 | 63 | 23 | 0.0 | 10.4 | 0.00 | 0.00 | 0.00 | 71 | 1010.8 |
| 20260507044543 | 62 | 354 | 0.9 | 8.7 | 0.00 | 0.00 | 0.00 | 71 | 1010.7 |
| 20260507043037 | 62 | 354 | 0.0 | 8.7 | 0.00 | 0.00 | 0.00 | 72 | 1010.5 |
| 20260507041528 | 61 | 27 | 3.5 | 11.3 | 0.00 | 0.00 | 0.00 | 72 | 1010.4 |
| 20260507040027 | 61 | 27 | 1.7 | 9.6 | 0.00 | 0.00 | 0.00 | 73 | 1010.2 |
| 20260507034527 | 61 | 354 | 1.7 | 8.7 | 0.00 | 0.00 | 0.00 | 74 | 1010.1 |
| 20260507033026 | 61 | 29 | 0.9 | 7.8 | 0.00 | 0.00 | 0.00 | 76 | 1009.9 |
| 20260507031523 | 60 | 339 | 0.9 | 7.8 | 0.00 | 0.00 | 0.00 | 77 | 1009.7 |
| 20260507030022 | 60 | 330 | 0.9 | 8.7 | 0.00 | 0.00 | 0.00 | 77 | 1009.4 |
| 20260507024521 | 60 | 335 | 0.0 | 7.0 | 0.00 | 0.00 | 0.00 | 77 | 1009.3 |
| 20260507023019 | 59 | 35 | 0.0 | 6.1 | 0.00 | 0.00 | 0.00 | 77 | 1009.2 |
| 20260507021516 | 59 | 299 | 0.0 | 2.6 | 0.00 | 0.00 | 0.00 | 77 | 1008.9 |
| 20260507020015 | 58 | 359 | 0.0 | 1.7 | 0.00 | 0.00 | 0.00 | 78 | 1008.7 |
| 20260507014514 | 58 | 318 | 0.0 | 1.7 | 0.00 | 0.00 | 0.00 | 78 | 1008.5 |
| 20260507013012 | 58 | 341 | 0.0 | 0.9 | 0.00 | 0.00 | 0.00 | 78 | 1008.3 |
| 20260507011510 | 57 | 334 | 0.0 | 0.0 | 0.00 | 0.00 | 0.00 | 78 | 1008.0 |
| 20260507010009 | 58 | 328 | 0.0 | 0.0 | 0.00 | 0.00 | 0.00 | 76 | 1007.9 |
| 20260507004506 | 58 | 338 | 0.0 | 0.0 | 0.00 | 0.00 | 0.00 | 76 | 1007.7 |
| 20260507003005 | 58 | 347 | 0.0 | 0.0 | 0.00 | 0.00 | 0.00 | 75 | 1007.6 |
| 20260507001508 | 58 | 347 | 0.0 | 0.0 | 0.00 | 0.00 | 0.00 | 75 | 1007.4 |
| 20260507000002 | 58 | 347 | 0.0 | 0.0 | 0.00 | 0.00 | 0.00 | 73 | 1007.3 |
| 20260506234600 | 58 | 349 | 0.0 | 0.0 | 0.00 | 0.00 | 0.00 | 72 | 1007.2 |
| 20260506233057 | 59 | 349 | 0.0 | 0.0 | 0.00 | 0.00 | 0.00 | 72 | 1007.0 |
| 20260506231554 | 59 | 305 | 0.0 | 0.0 | 0.00 | 0.00 | 0.00 | 72 | 1006.8 |
| 20260506224550 | 59 | 302 | 0.0 | 0.0 | 0.00 | 0.00 | 0.00 | 70 | 1006.4 |
| 20260506223049 | 59 | 302 | 0.0 | 0.0 | 0.00 | 0.00 | 0.00 | 71 | 1006.3 |
| 20260506221548 | 60 | 302 | 0.0 | 0.0 | 0.00 | 0.00 | 0.00 | 69 | 1006.1 |
| 20260506220049 | 59 | 302 | 0.0 | 0.0 | 0.00 | 0.00 | 0.00 | 70 | 1006.2 |
| 20260506214545 | 60 | 302 | 0.0 | 0.0 | 0.00 | 0.00 | 0.00 | 68 | 1005.9 |
| 20260506213042 | 60 | 302 | 0.0 | 0.0 | 0.00 | 0.00 | 0.00 | 67 | 1005.8 |
| 20260506211541 | 61 | 330 | 0.0 | 0.0 | 0.00 | 0.00 | 0.00 | 66 | 1006.0 |
| 20260506210036 | 62 | 330 | 0.0 | 0.0 | 0.00 | 0.00 | 0.00 | 64 | 1006.0 |
| 20260506204534 | 63 | 330 | 0.0 | 0.9 | 0.00 | 0.00 | 0.00 | 62 | 1005.9 |
| 20260506203031 | 64 | 354 | 0.0 | 0.0 | 0.00 | 0.00 | 0.00 | 60 | 1005.7 |
| 20260506201540 | 65 | 359 | 0.0 | 1.7 | 0.00 | 0.00 | 0.00 | 58 | 1005.7 |
| 20260506200028 | 65 | 22 | 0.0 | 0.9 | 0.00 | 0.00 | 0.00 | 57 | 1005.8 |
| 20260506194527 | 65 | 10 | 0.0 | 10.4 | 0.00 | 0.00 | 0.00 | 55 | 1005.9 |
| 20260506193026 | 66 | 243 | 0.0 | 0.0 | 0.00 | 0.00 | 0.00 | 52 | 1005.4 |
| 20260506191524 | 67 | 243 | 0.0 | 0.0 | 0.00 | 0.00 | 0.00 | 51 | 1005.4 |
| 20260506190023 | 67 | 243 | 0.0 | 0.0 | 0.00 | 0.00 | 0.00 | 50 | 1005.3 |
| 20260506184524 | 69 | 308 | 0.0 | 0.0 | 0.00 | 0.00 | 0.00 | 48 | 1005.5 |
| 20260506183023 | 70 | 318 | 0.0 | 0.9 | 0.00 | 0.00 | 0.00 | 46 | 1005.4 |
| 20260506181522 | 69 | 301 | 0.0 | 2.6 | 0.00 | 0.00 | 0.00 | 48 | 1005.5 |
| 20260506180021 | 70 | 210 | 0.0 | 0.0 | 0.00 | 0.00 | 0.00 | 48 | 1005.5 |
| 20260506174522 | 71 | 198 | 0.0 | 0.0 | 0.00 | 0.00 | 0.00 | 46 | 1005.3 |
| 20260506173020 | 71 | 198 | 0.0 | 0.0 | 0.00 | 0.00 | 0.00 | 44 | 1005.4 |
| 20260506171520 | 72 | 198 | 0.0 | 0.0 | 0.00 | 0.00 | 0.00 | 43 | 1005.4 |
| 20260506170020 | 72 | 198 | 0.0 | 0.0 | 0.00 | 0.00 | 0.00 | 42 | 1005.3 |
| 20260506164519 | 73 | 198 | 0.0 | 0.0 | 0.00 | 0.00 | 0.00 | 41 | 1005.2 |
| 20260506163036 | 73 | 198 | 0.0 | 0.0 | 0.00 | 0.00 | 0.00 | 40 | 1005.1 |
| 20260506161519 | 74 | 198 | 0.0 | 0.0 | 0.00 | 0.00 | 0.00 | 39 | 1005.1 |
| 20260506160018 | 76 | 198 | 0.0 | 0.0 | 0.00 | 0.00 | 0.00 | 37 | 1005.1 |
| 20260506154524 | 77 | 194 | 0.0 | 0.0 | 0.00 | 0.00 | 0.00 | 36 | 1004.9 |
| 20260506153017 | 78 | 194 | 0.0 | 1.7 | 0.00 | 0.00 | 0.00 | 36 | 1004.9 |
| 20260506151516 | 78 | 200 | 0.0 | 0.0 | 0.00 | 0.00 | 0.00 | 35 | 1005.1 |
| 20260506150017 | 77 | 264 | 0.9 | 3.5 | 0.00 | 0.00 | 0.00 | 35 | 1005.1 |
| 20260506144517 | 77 | 278 | 0.0 | 7.0 | 0.00 | 0.00 | 0.00 | 36 | 1005.1 |
| 20260506143017 | 77 | 272 | 0.0 | 3.5 | 0.00 | 0.00 | 0.00 | 36 | 1005.1 |
| 20260506141515 | 78 | 322 | 0.9 | 7.8 | 0.00 | 0.00 | 0.00 | 35 | 1005.0 |
| 20260506140015 | 79 | 267 | 0.9 | 7.8 | 0.00 | 0.00 | 0.00 | 35 | 1004.8 |